This demonstration page uses our WeatherBlox Daily Observations layout. Learn more.

Left ArrowRight Arrow

34.02893, -84.19858

Hourly Observations for March 13, 2016

Temp ( °F °C ) Dew Point ( °F °C ) Humidity (%) Winds ( mph kmh ) Pressure ( in mb ) Visibility ( mi km ) Precip ( " mm )
12:53 am 00:53 Cloudy 69 20.6 57 13.9 66 66 SSE 5 7 29.93 1014 10 16 0.00 0.00
1:53 am 01:53 Cloudy 68 20 57 13.9 68 68 SE 5 7 29.91 1013 10 16 0.00 0.00
3:53 am 03:53 Cloudy with Light Rain 66 18.9 58 14.4 75 75 SE 8 13 29.88 1012 8 13 0.00 0.03
4:53 am 04:53 Cloudy 66 18.9 58 14.4 75 75 SSE 8 13 29.85 1011 10 16 0.01 0.25
5:53 am 05:53 Cloudy with Light Rain 64 17.8 61 16.1 90 90 SE 10 17 29.84 1011 4 6 0.02 0.51
6:28 am 06:28 Cloudy 63 17 61 16 94 94 SSE 8 13 29.85 1011 10 16 0.00 0.00
6:53 am 06:53 Cloudy 63 17.2 62 16.7 97 97 SE 7 11 29.83 1010 9 14 0.01 0.25
7:26 am 07:26 Cloudy with Light Rain 64 18 63 17 94 94 SSW 13 20 29.85 1011 8 13 0.00 0.00
7:53 am 07:53 Cloudy 64 17.8 63 17.2 96 96 S 10 17 29.85 1011 10 16 0.00 0.03
8:53 am 08:53 Cloudy 66 18.9 62 16.7 87 87 SW 13 20 29.87 1012 10 16 0.00 0.00
8:58 am 08:58 Cloudy 66 19 63 17 88 88 SW 10 17 29.88 1012 10 16 0.00 0.00
9:53 am 09:53 Cloudy 67 19.4 61 16.1 81 81 WSW 13 20 29.88 1012 10 16 0.00 0.00
10:53 am 10:53 Cloudy 70 21.1 61 16.1 73 73 WSW 9 15 29.88 1012 10 16 0.00 0.00
10:59 am 10:59 Mostly Cloudy 69 20.6 60 15.6 73 73 WSW 12 19 29.88 1012 10 16 0.00 0.00
11:53 am 11:53 Mostly Cloudy 72 22.2 60 15.6 66 66 WSW 10 17 29.87 1012 10 16 0.00 0.00
12:53 pm 12:53 Mostly Cloudy 72 22.2 60 15.6 66 66 SW 10 17 29.87 1012 10 16 0.00 0.00
1:48 pm 13:48 Cloudy 72 22 57 14 61 61 SW 10 17 29.88 1012 10 16 0.00 0.00
1:53 pm 13:53 Cloudy 72 22.2 58 14.4 61 61 WSW 16 26 29.86 1011 10 16 0.00 0.00
2:53 pm 14:53 Mostly Cloudy 73 22.8 59 15 62 62 W 13 20 29.85 1011 10 16 0.00 0.00
3:53 pm 15:53 Partly Cloudy 73 22.8 58 14.4 59 59 SW 7 11 29.83 1010 10 16 0.00 0.00
4:53 pm 16:53 Mostly Cloudy 75 23.9 56 13.3 52 52 W 13 20 29.82 1010 10 16 0.00 0.00
5:53 pm 17:53 Partly Cloudy 75 23.9 53 11.7 46 46 WSW 13 20 29.82 1010 10 16 0.00 0.00
6:53 pm 18:53 Mostly Cloudy 73 22.8 52 11.1 48 48 WSW 10 17 29.82 1010 10 16 0.00 0.00
7:53 pm 19:53 Mostly Clear 71 21.7 52 11.1 51 51 SW 9 15 29.83 1010 10 16 0.00 0.00
8:53 pm 20:53 Clear 68 20 53 11.7 59 59 SW 6 9 29.85 1011 10 16 0.00 0.00
9:53 pm 21:53 Clear 64 17.8 53 11.7 68 68 Calm 29.85 1011 10 16 0.00 0.00
10:53 pm 22:53 Clear 63 17.2 53 11.7 70 70 Calm 29.86 1011 10 16 0.00 0.00
11:53 pm 23:53 Clear 59 15 53 11.7 81 81 Calm 29.86 1011 10 16 0.00 0.00

Powered by AerisWeather